East Case, Maryland
Current Conditions -  °F | °C
As of 10:54 PM on Tuesday 25 Nov 2014 (Local Time) from KBWI Reporting Station
Overcast Overcast  
Wind Chill: 44°   Ceiling: 16000
Heat Index: 44°   Visibility: 10mi
Dew Point: 35°   Wind: 0mph
Humidity: 71%   Direction: NA
Pressure: 30.15"   Gusts: NA
Location:  39.2974°N, 76.6074°W
Report Text: KBWI 260354Z 00000KT 10SM OVC160 07/02 A3015 RMK AO2 SLP209 T00670017 $
Loading
Personal Weather Stations






























Interactive Weather Map New forecast layout! Learn more

10-Day Weather Forecast

Advertisements
Track Severe Weather on mobile